www.pogodaiklimat.ru

Погода и климат >> Архив погоды >> Испания >> Сан-Себастьян


ПОГОДА в Сан-Себастьяне

  • Прогноз погоды в Сан-Себастьяне
  • Монитор погоды в Сан-Себастьяне

АРХИВ ПОГОДЫ в Сан-Себастьяне

Время (UTC), дата Ветер
(напр.,м/с)
 
Видим.   Явления Облачность Т
(С)
Тd
(С)
f
(%)
Тe
(С)
Тes
(С)
Комфортность P
(гПа)
Po
(гПа)
Тmin
(С)
Tmax
(С)
R
(мм)
R24
(мм)
S
(см)
06 16.08 ЮВ 3 50 км 1/0
[Ci fib]
+13.4 +12.3 93 +12 +13 1020.5 989.8 +13.4
09 16.08 ЮВ 3 55 км 1/0
[Ci fib]
+18.6 +14.5 77 +19 +27 1018.9 988.8
12 16.08 СЗ 2 55 км 3/0
[Ci fib]
+20.0 +16.0 78 +23 +38 комфорт 1017.9 988.0
15 16.08 СЗ 2 50 км 5/0
[Ci]
+22.8 +18.1 75 +28 +37 душно 1016.6 987.0
18 16.08 СЗ 4 40 км 4/0
[Ci fib]
+23.2 +18.1 73 +29 +29 душно 1016.2 986.7 +24.8
21 16.08 З 2 40 км 6/0
[Ci sp]
+19.1 +14.1 73 +21 +21 комфорт 1017.7 987.7
00 17.08 З 1 45 км 3/0
[Ci fib]
+18.5 +13.8 74 +20 +20 1017.5 987.4
03 17.08 В 1 45 км 3/0
[Ci fib]
+17.8 +11.8 68 +19 +19 1016.9 986.7
06 17.08 ЮВ 3 45 км 3/0
[Ci fib]
+16.9 +12.6 76 +17 +17 1016.1 985.9 +16.0
09 17.08 ЮВ 2 50 км 3/0
[Ci fib]
+20.8 +15.6 72 +25 +33 комфорт 1017.6 987.7
12 17.08 СЗ 1 45 км 1/1 1000 м
[Cu hum Ci fib]
+24.5 +18.0 67 +29 +46 душно 1015.1 985.7
15 17.08 СЗ 4 50 км 1/0
[Ci fib]
+23.5 +20.2 82 +29 +36 душно 1014.0 984.6
18 17.08 С 2 50 км ясно +22.6 +16.4 68 +27 +28 душно 1012.7 983.2 +26.4
21 17.08 СЗ 1 45 км 1/0
[Ci fib]
+20.2 +17.6 85 +25 +25 комфорт 1013.4 983.6
00 18.08 Ю 3 40 км 1/0
[Ci fib]
+19.0 +17.0 88 +21 +21 комфорт 1011.2 981.4
03 18.08 ЮВ 3 40 км 1/0
[Ci fib]
+18.6 +17.3 92 +20 +20 1010.2 980.4
06 18.08 Ю 2 40 км 3/1 300 м
[Sc Ci fib]
+18.4 +16.7 90 +20 +20 1010.4 980.5 +17.0
09 18.08 СЗ 5 35 км 8/5 300 м
[Cu Sc Ac und Ci fib]
+20.6 +18.9 90 +25 +26 комфорт 1013.3 983.6
12 18.08 З 4 30 км 9/8 300 м
[Cu Sc Ac As]
+21.6 +20.1 91 +27 +29 душно 1014.5 984.9
15 18.08 СЗ 5 25 км 9/9 300 м
[Cu Sc]
+19.4 +17.5 89 +21 +22 комфорт 1015.3 985.4
18 18.08 СЗ 8 200 м слаб. дождь {туман} ?/? +17.2 +17.2 100 +16 +16 1017.1 986.9 +22.0 7
21 18.08 СЗ 5 20 км в посл. час дождь {туман} 10/10 200 м
[Cu Sc]
+15.8 +15.5 98 +15 +15 1018.4 988.0
00 19.08 СЗ 4 200 м слаб. дождь {туман} ?/? +16.4 +16.1 98 +16 +16 1020.2 989.8 3
03 19.08 Ю 2 15 км {дождь, туман} 10/10 200 м
[Cu Sc]
+15.6 +15.3 98 +16 +16 1019.8 989.3
06 19.08 В 1 15 км {дождь, туман} 10/10 200 м
[Cu Sc]
+15.6 +15.0 96 +16 +16 1020.3 989.8 +15.5 4
09 19.08 З 3 12 км 10/10 200 м
[Cu Sc]
+16.5 +15.4 93 +16 +16 1020.4 990.0
12 19.08 СЗ 3 20 км {дождь} 9/8 200 м
[Cu Sc Ac As]
+18.4 +15.5 83 +19 +21 1020.5 990.3 0.0
15 19.08 С 3 20 км 10/8 600 м
[Cu Sc Ac As]
+18.5 +14.2 76 +19 +20 1020.5 990.3
18 19.08 СВ 4 15 км {дождь} 10/9 300 м
[Cu Sc Ac As]
+17.4 +14.5 83 +17 +17 1020.5 990.2 +19.6 0.0
21 19.08 СВ 4 15 км слаб. дождь 10/10 300 м
[Cu Sc]
+16.9 +14.0 83 +16 +16 1021.1 990.7
00 20.08 Ю 3 20 км {дождь} 10/10 300 м
[Cu Sc]
+16.5 +14.3 87 +16 +16 1021.4 991.0 0.4
03 20.08 В 2 15 км слаб. дождь 10/10 300 м
[Cu Sc]
+15.3 +13.8 91 +15 +15 1021.0 990.5
06 20.08 СВ 2 18 км {дождь} 9/8 600 м
[Cu Sc Ac As Cs]
+15.0 +13.9 93 +15 +15 1021.7 991.1 +14.9 1
09 20.08 С 1 18 км 8/5 300 м
[Cu Sc Ac trans]
+17.1 +14.9 87 +18 +21 1023.4 993.0
12 20.08 С 3 25 км 5/1 600 м
[Cu med, cong Ac trans]
+18.7 +14.8 78 +20 +28 1024.1 993.8
15 20.08 СЗ 4 40 км 4/1 600 м
[Cu hum Ac As Ci fib]
+18.9 +15.2 79 +20 +25 1024.5 994.2
18 20.08 С 4 40 км 5/3 300 м
[Cu Sc Ac As Ci fib]
+18.7 +13.8 73 +20 +20 1024.3 994.0 +19.9
21 20.08 С 3 40 км 6/6 300 м
[Cu Sc]
+17.9 +13.4 75 +18 +18 1024.8 994.4
00 21.08 ЮВ 2 40 км 6/0
[Ac As Ci fib]
+16.7 +14.0 84 +17 +17 1024.6 994.1
03 21.08 ЮВ 2 40 км 3/1 300 м
[St Ci fib]
+15.0 +12.1 83 +15 +15 1023.9 993.2
06 21.08 ЮВ 1 40 км 9/0 1500 м
[Ac As]
+15.2 +12.3 83 +16 +16 1022.9 992.3 +14.8
09 21.08 СЗ 1 40 км 6/0
[Ac As Cs]
+18.7 +15.0 79 +21 +29 комфорт 1022.7 992.5
12 21.08 С 3 40 км 5/1 600 м
[Cu hum Ci sp]
+20.2 +15.6 75 +23 +35 комфорт 1021.9 991.9
15 21.08 С 4 40 км 5/1 1000 м
[Cu hum Ci sp]
+21.6 +17.2 76 +26 +31 душно 1021.1 991.2
18 21.08 С 3 40 км 3/1 600 м
[Cu hum Ci sp]
+21.4 +16.8 75 +25 +26 комфорт 1021.5 991.6 +22.6
21 21.08 С 2 40 км ясно +19.2 +17.0 87 +22 +22 комфорт 1022.9 992.7
00 22.08 З 3 35 км 6/6 600 м
[Sc]
+18.4 +16.4 88 +19 +19 1022.8 992.6
03 22.08 ЮЗ 3 35 км 5/5 600 м
[Sc]
+17.8 +16.7 93 +18 +18 1022.4 992.1
06 22.08 ЮЗ 2 35 км 6/6 600 м
[Sc]
+18.0 +16.5 91 +19 +19 1023.1 992.8 +17.5
09 22.08 СЗ 2 35 км 4/4 1000 м
[Cu med, cong]
+19.9 +17.1 84 +23 +28 комфорт 1023.5 993.4
12 22.08 С 3 35 км 1/1 1000 м
[Cu hum]
+20.4 +18.2 87 +24 +37 комфорт 1023.3 993.3
15 22.08 СЗ 4 25 км 1/1 300 м
[Sc]
+21.8 +19.0 84 +27 +32 душно 1022.6 992.7
18 22.08 С 2 45 км 4/1 1000 м
[Sc Ci fib]
+20.8 +16.6 77 +25 +25 комфорт 1021.8 991.8 +22.5
21 22.08 СВ 1 50 км 3/1 1000 м
[Sc Ci fib]
+18.4 +13.1 71 +20 +20 1022.4 992.1
00 23.08 Ю 2 50 км 1/0
[Ci fib]
+17.0 +12.7 76 +18 +18 1021.6 991.2

 

Местоположение метеостанции Сан-Себастьян (Испания): широта 43.30 долгота -2.03 высота над уровнем моря 259 м.

В архиве по умолчанию представлена погода в Сан-Себастьяне за последнюю неделю. Архивные данные за месяц целиком и за предыдущие месяцы, начиная с января 2011 года, Вы можете получить, выбрав интересующий диапазон дат из раскрывающегося списка и нажав кнопку "Ввод!".


*Определитесь, кто Вы:
робот инопланетянин человек

Внимание! Время в таблицах - всемирное. Для получения местного времени необходимо прибавить поправку, которая равна 1 ч.

Смотрите также архив погоды в соседних городах и на ближайших метеорологических станциях:

Погода на Мысе Зумая (Испания) (18 км)
Погода Сан-Себастьян аэропорту (Испания) (19 км)
Погода в Сибуре (Франция) (30 км)
Погода в Элгойбар - Ибердрола (Испания) (32 км)
Погода в Зумаррага - Урзабалета (Испания) (34 км)
Погода на Мысе Лекейтио (Испания) (40 км)
Погода в Ирурите (Испания) (44 км)
Погода в Биаррице (Франция) (45 км)
Погода в Памплоне (Испания) (67 км)
Погода в Илундайне (Испания) (71 км)

Пояснения к столбцам:

Ветер - указаны скорость ветра в м/с - средняя за 10 мин, порывы в срок и между сроками (в фигурных скобках) и направление, откуда дует ветер: С - северный, СВ - северо-восточный, В - восточный, ЮВ - юго-восточный, Ю - южный, ЮЗ - юго-западный, З - западный, СЗ - северо-западный.
Видимость - горизонтальная дальность видимости в метрах или километрах. При видимости от 1 до 10 км при отсутствии осадков обычно наблюдается дымка, при ухудшении видимости до 1 км и менее - туман. В сухую погоду видимость может ухудшаться дымом, пылью или мглою.
Явления - указаны атмосферные явления, наблюдавшиеся в срок или в последний час перед сроком; фигурными скобками обозначены явления, наблюдавшиеся между сроками (за 1-3 часа до срока); квадратными скобками обозначены град или гололедные отложения с указанием их диаметра в мм.
Облачность - указаны через наклонную черту общая и нижняя облачность в баллах и высота нижней границы облаков в метрах; квадратными скобками обозначены формы облаков: Ci - перистые, Cs - перисто-слоистые, Cc - перисто-кучевые, Ac - высококучевые, As - высокослоистые, Sc - слоисто-кучевые, Ns - слоисто-дождевые, Cu - кучевые, Cb - кучево-дождевые. Подробнее классификацию облаков см. в Атласе облаков (PDF).
T - Температура воздуха - температура, измеренная на высоте 2 м над землей.
Td - Температура точки росы - температура, при понижении до которой содержащийся в воздухе водяной пар достигнет насыщения.
f - Относительная влажность воздуха - влажноcть воздуха, измеренная на высоте 2 м над землей.
Te - Эффективная температура - температура, которую ощущает одетый по сезону человек в тени. Характеристика душности погоды. При расчете учитывается влияние влажности воздуха и скорости ветра на теплоощущения человека.
Tes - Эффективная температура на солнце - температура, которую ощущает человек, с поправкой на солнечный нагрев. Характеристика знойности погоды. Зависит от высоты солнца над горизонтом, облачности и скорости ветра. Ночью, в пасмурную погоду, а также при ветре 12 м/с и более поправка равна нулю.
P - Атмосферное давление - приведенное к уровню моря атмосферное давление.
Po - Атмосферное давление - измеренное на уровне метеостанции атмосферное давление.
Tmin - Минимальная температура - минимум температуры воздуха на высоте 2 м над землей.
Tmax - Максимальная температура - максимум температуры воздуха на высоте 2 м над землей.
R - Количество осадков - Количество выпавших осадков за период времени, мм. При наведении курсора мыши на число - период времени, за который выпало указанное количество осадков.
R24 - Количество осадков - Количество выпавших осадков за 24 часа, мм.
S - Снежный покров - Высота снежного покрова, см. При наведении курсора мыши на число - состояние снежного покрова и степень покрытия местности в баллах.